Regional Weather Roundup
Issued by NWS State College, PA

Home | Current Version | Previous Version | Text Only | Print | Product List | Glossary On
Versions: 1 2 3 4 5 6 7 8 9 10 11 12 13 14 15 16 17 18 19 20 21 22 23 24 25 26 27 28 29 30 31 32 33 34 35 36 37 38 39 40 41 42 43 44 45 46 47 48 49 50
000
ASUS41 KCTP 171910
RWRCTP

REGIONAL WEATHER ROUNDUP
NATIONAL WEATHER SERVICE STATE COLLEGE PA
300 PM EDT FRI APR 17 2015

Note: "fair" indicates few or no clouds below 12,000 feet with no
significant weather and/or obstructions to visibility.

* = STATION THAT DOES NOT REPORT PRECIPITATION /E.G. RAIN...SNOW...ETC/
    THUNDER OR FOG.

PAZ002>004-007>009-013>016-020>023-029>032-172000-
WESTERN PENNSYLVANIA

CITY           SKY/WX    TMP DP  RH WIND       PRES   REMARKS
ERIE           SUNNY     62  49  62 W8        30.05F
MEADVILLE      CLOUDY    61  49  64 W8        30.05F
FRANKLIN*      CLOUDY    63  48  59 W9G17     30.06F
NEW CASTLE     FAIR      67  56  67 N8        30.05F
BEAVER COUNTY  CLOUDY    66  52  59 CALM      30.05F
BUTLER*        CLOUDY    64  54  68 NW8       30.07F
PITTSBURGH INT PTSUNNY   67  52  58 NW6       30.05F
PITTSBURGH     CLOUDY    66  50  56 W10       30.04F
INDIANA*       PTSUNNY   63  57  82 W8        30.08F
LATROBE        CLOUDY    64  57  77 VRB6      30.06F
WASHINGTON CO* PTSUNNY   66  54  63 W7        30.06F
$$

PAZ004>006-010>012-017>019-024>028-033>037-041-042-045-046-049>053-172000-
CENTRAL PENNSYLVANIA

CITY           SKY/WX    TMP DP  RH WIND       PRES   REMARKS
BRADFORD       CLOUDY    59  49  69 NW12      30.02F
DUBOIS         CLOUDY    61  54  77 W12       30.03F
CLEARFIELD     PTSUNNY   63  52  67 W9        30.03F
JOHNSTOWN      CLOUDY    60  53  77 NW8       30.05F
ALTOONA        CLOUDY    64  53  67 N3        30.03F
STATE COLLEGE  CLOUDY    64  55  72 W10       30.01F
WILLIAMSPORT   CLOUDY    67  53  61 W12       29.97F
SELINSGROVE    CLOUDY    69  55  60 W6        29.98F
FT INDIANTOWN  PTSUNNY   71  55  56 W8        29.98F
CAPITAL CITY   CLOUDY    72  55  55 NW10      29.98F
HARRISBURG     PTSUNNY   71  55  56 NW7       29.98F
YORK           PTSUNNY   72  58  61 NW7       29.99F
$$

PAZ038>040-043-044-047-048-054-055-060>062-067>071-172000-
EASTERN PENNSYLVANIA

CITY           SKY/WX    TMP DP  RH WIND       PRES   REMARKS
SCRANTON       CLOUDY    64  52  64 SW15G21   29.96F
MOUNT POCONO   CLOUDY    62  52  69 W12       29.98F
ALLENTOWN      CLOUDY    67  55  65 W10       29.98F
QUAKERTOWN*    CLOUDY    66  55  68 W8        29.99F
READING        PTSUNNY   70  55  59 W12       29.98F
LANCASTER      PTSUNNY   70  57  63 W13       29.98F
COATESVILLE    PTCLDY    72  57  60 W8        29.99F
POTTSTOWN      PTSUNNY   69  56  62 W8        29.99F
BLUE BELL      CLOUDY    70  57  64 W3        29.98F
DOYLESTOWN     PTSUNNY   68  56  65 SW12      29.97F
WILLOW GROVE   NOT AVBL
NORTH PHILA    CLOUDY    71  55  56 W8        29.99F
PHILADELPHIA   PTSUNNY   72  57  59 SW6       29.98F
$$


USA.gov is the U.S. government's official web portal to all federal, state and local government web resources and services.